Location: Bright
(34.8470°N, 89.9204°W)
Time: 12:51:09
(UTC+00:00)

Daily predictions for brighter satellites

Satellite Brightness Start Highest point End
(mag) Time Altitude Azimuth Time Altitude Azimuth Time Altitude Azimuth
Cosmos 2221 3.5 12:05:35 10° N 12:09:35 47° E 12:13:33 10° SSE
OAO 2 Rocket 3.4 12:05:36 10° W 12:10:48 87° S 12:15:55 10° E
Cosmos 1758 Rocket 3.7 12:08:16 10° SSW 12:12:35 51° W 12:16:52 10° N
Cosmos 1484 Rocket 3.1 12:11:57 10° N 12:15:00 32° WNW 12:18:00 10° SW
BREEZE-M DEB (TANK) 4.2 12:12:19 10° SW 12:16:47 89° SE 12:35:49 10° NE
BREEZE-M DEB (TANK) 2.9 12:17:04 10° SW 12:22:10 79° NW 12:24:40 10° NE
Helios 1A Rocket 3.7 12:20:11 10° SSW 12:22:53 23° W 12:25:35 10° NW
Cosmos 1437 Rocket 3.7 12:20:04 10° N 12:23:23 43° E 12:26:42 10° SSE
ISS -2.7 12:21:13 10° SSW 12:24:28 51° SE 12:27:46 10° ENE
[s.n.66875] 1.3 12:25:20 10° WSW 12:27:52 88° SSE 12:30:25 10° ENE
[s.n.66873] 1.3 12:26:02 10° WSW 12:28:34 90° ESE 12:31:07 10° ENE
[s.n.66876] 1.3 12:26:30 10° WSW 12:29:02 89° NW 12:31:35 10° ENE
OAO 3 Copernicus 4.3 12:25:34 10° W 12:30:36 90° WSW 12:35:36 10° E
Cosmos 2360 Rocket 2.3 12:25:34 10° NNW 12:31:05 59° WSW 12:36:33 10° S
Cosmos 1354 Rocket 4.1 23:09:39 10° SSW 23:14:55 89° E 23:20:12 10° NNE
Cosmos 1980 Rocket 2.7 23:12:42 10° S 23:17:57 41° ESE 23:23:13 10° NE
Cosmos 1743 2.3 23:15:18 10° N 23:18:32 84° W 23:21:45 10° S
SJ-12 4.4 23:17:59 10° SE 23:21:22 33° ENE 23:24:47 10° N
Cosmos-2242 4.5 23:18:53 10° SE 23:21:40 17° E 23:24:29 10° NE
CORIOLIS 4.1 23:18:00 10° SSE 23:23:17 71° ENE 23:28:37 10° N
Okean 1-7 Rocket 3.7 23:19:56 10° N 23:24:13 53° E 23:28:27 10° SSE
YAOGAN 1 4.3 23:22:43 10° E 23:24:20 12° ENE 23:25:57 10° NE
Cosmos 1602 Rocket 3.5 23:20:28 10° N 23:24:50 86° E 23:29:09 10° S
Cosmos 1898 Rocket 4.4 23:21:22 10° SSE 23:25:40 28° E 23:30:00 10° NE
IRIDIUM 104 4.3 23:24:34 10° N 23:29:49 85° E 23:35:02 10° S
SAR-Lupe-4 3.7 23:27:51 10° SSE 23:31:16 47° ENE 23:34:41 10° N
Meteor 1-25 Rocket 4.3 23:26:41 10° N 23:32:26 62° E 23:38:04 10° SSE
IGS 5A 4.4 23:29:02 10° S 23:32:51 49° W 23:36:42 10° NNW
SKYMED 2 4.2 23:29:46 10° NNE 23:33:45 35° E 23:37:43 10° SSE
Cosmos 2263 Rocket 3.2 23:30:18 10° N 23:34:46 23° ENE 23:39:12 10° ESE
Cosmos 2151 3.2 23:31:07 10° N 23:35:17 73° W 23:39:25 10° S
Cosmos 372 Rocket 4.3 23:32:04 10° S 23:36:59 46° ESE 23:41:53 10° NNE
SL-16 R/B 4.1 23:31:42 10° N 23:37:10 34° WNW 23:42:36 10° SW
IRS-1C 4.1 23:35:00 10° SSE 23:40:16 71° ENE 23:45:34 10° N
NOSS 2-3 (C) 3.8 23:37:50 10° SW 23:41:19 49° WNW 23:44:43 10° NNE
SAR-Lupe-1 4.1 23:38:50 10° SSE 23:42:21 57° ENE 23:45:54 10° N
Cosmos 1937 Rocket 4.3 23:39:37 10° SSE 23:44:05 30° E 23:47:52 13° NE
Helios 1A Rocket 3.9 23:46:13 18° E 23:46:55 19° E 23:49:24 10° SE
Cosmos 1953 Rocket 4.0 23:44:38 10° N 23:48:49 40° E 23:52:59 10° SSE
MOS 1 Rocket 3.4 23:44:39 10° SSE 23:49:24 67° ENE 23:54:29 10° N
Cosmos 2227 Rocket 2.2 23:46:22 10° NNW 23:51:56 58° ENE 23:57:28 10° SE
Cosmos 2084 Rocket 3.3 23:48:12 10° NNW 23:52:25 74° ENE 23:56:35 10° SE
EXPRESS MD2 3.8 23:51:03 10° W 23:53:12 30° NNW 23:55:08 16° NNE
CZ-2D R/B 4.1 23:52:14 10° SE 23:55:57 32° ENE 23:59:40 10° N
